Regional Weather Roundup
Issued by NWS Albany, NY

Home | Current Version | Previous Version | Text Only | Print | Product List | Glossary On
Versions: 1 2 3 4 5 6 7 8 9 10 11 12 13 14 15 16 17 18 19 20 21 22 23 24 25 26 27 28 29 30 31 32 33 34 35 36 37 38 39 40 41 42 43 44 45 46 47 48 49 50
729
ASUS41 KALY 270810
RWRALY

NEW YORK STATE HOURLY WEATHER ROUNDUP
NATIONAL WEATHER SERVICE ALBANY NY
300 AM EST MON FEB 27 2017

NOTE: "FAIR" INDICATES FEW OR NO CLOUDS BELOW 12,000 FEET WITH NO
SIGNIFICANT WEATHER AND/OR NO OBSTRUCTIONS TO VISIBILITY.

NYZ032-033-038>043-046>054-057>066-NYZ062>081-082-084-270900-
EAST


CITY           SKY/WX    TMP DP  RH WIND       PRES   REMARKS
ALBANY         PTCLDY    29  18  63 S6        30.21S WCI  23
GLENS FALLS    CLEAR     28  19  69 S8        30.17F WCI  20
POUGHKEEPSIE   PTCLDY    26  19  74 SW3       30.27R
NEWBURGH       CLEAR     28  19  69 SW7       30.27  WCI  21
MONTGOMERY     CLEAR     26  18  71 S7        30.25S WCI  18
WHITE PLAINS   CLEAR     29  16  58 CALM      30.26S
ISLIP          CLEAR     29  18  63 SW3       30.30S
NEW YORK CITY  CLEAR     38  18  44 SW9       30.30R WCI  31
CENTRAL PARK   CLEAR     36  16  44 W5        30.32R WCI  32
$$

NYZ005>009-017-018-044>046-055-056-270900-
CENTRAL


CITY           SKY/WX    TMP DP  RH WIND       PRES   REMARKS
FULTON         CLEAR     34  18  52 SW10      30.10R WCI  26
SYRACUSE       PTCLDY    34  17  50 SW20G28   30.11S WCI  23
ROME           CLEAR     27  19  72 E9        30.15S WCI  18
ELMIRA         CLEAR     22  15  75 CALM      30.18R
BINGHAMTON     CLEAR     26  15  63 SW12      30.14S WCI  16
MONTICELLO     CLEAR    N/A N/A N/A S5        30.21S
$$

NYZ026>034-041>043-087-270900-
NORTH


CITY           SKY/WX    TMP DP  RH WIND       PRES   REMARKS
WATERTOWN      CLEAR     33  20  58 S10       30.06R WCI  25
FORT DRUM      NOT AVBL
OGDENSBURG     FAIR      35  23  62 SW15G22   30.00S WCI  25
MASSENA        MOCLDY    34  20  56 SW16G25   30.00S WCI  24
SARANAC LAKE   CLOUDY    26  19  74 SW9       29.98S WCI  17
PLATTSBURGH    PTCLDY    30  19  63 S10G16    30.05F WCI  21
$$

NYZ001>004-010>016-019>021-085-270900-
WEST


CITY           SKY/WX    TMP DP  RH WIND       PRES   REMARKS
NIAGARA FALLS  CLOUDY    40  21  46 SW18      30.09S WCI  31
BUFFALO        PTCLDY    39  19  44 SW18G31   30.10S WCI  30
DUNKIRK        CLEAR     38  17  42 SW17      30.13S WCI  28
JAMESTOWN      CLEAR     30  14  51 SW12      30.13R WCI  21
WELLSVILLE     CLEAR     31  13  47 SW14G21   30.13S WCI  21
ROCHESTER      PTCLDY    38  18  44 W17G23    30.10R WCI  28
PENN YAN       CLEAR     34  15  46 S14       30.14R WCI  25
$$

             KEY
       WCI = WIND CHILL INDEX
       VSB = VISIBILITY
       HX  = HEAT INDEX
$$




USA.gov is the U.S. government's official web portal to all federal, state and local government web resources and services.